[[{"header":{"parameterUnit":"m.s-1","parameterCategory":1,"la1":30.2991,"la2":30.254,"lo1":-89.0895,"lo2":-89.0444,"dy":0.0017,"dx":0.0017,"nx":28,"ny":28,"refTime":"2025-04-05T03:00:00:Z","depth":0,"parameterNumber":2,"parameterNumberName":"U-component_of_WINDS"},"data":[0,0,0,0,0,0,0,0,0,0,0,0,0,0,0,0,0,0,0,0,0,0,0,0,0,0,0,0,0,0,0,0,0,0,0,0,0,0,0,0,0,0,0,0,0,0,0,0,0,0,0,0,0,0,0,0,0,0,-1.5947,-1.5948,0,-1.6047,-1.6048,-1.6049,-1.6105,-1.6105,-1.6106,-1.6106,-1.6209,-1.6212,-1.6214,0,0,0,0,0,0,0,0,0,0,0,0,0,-1.5806,-1.5809,-1.5947,-1.5948,-1.5949,-1.6046,-1.6048,-1.6049,-1.6105,-1.6105,-1.6106,-1.6106,-1.6208,-1.6211,-1.6214,0,0,0,0,0,0,0,0,0,0,0,0,0,-1.5883,-1.5809,-1.5946,-1.5989,-1.5994,-1.6046,-1.6048,-1.6049,-1.6105,-1.6105,-1.6106,-1.6106,-1.6207,-1.6211,-1.6215,-1.6233,0,0,-1.6227,-1.6228,0,0,0,0,0,0,0,0,-1.5878,-1.5888,-1.5981,-1.5986,-1.5991,-1.6064,-1.6036,-1.6111,-1.6105,-1.6063,-1.6106,-1.6106,-1.6161,-1.6168,-1.6186,-1.6238,-1.6242,-1.6227,-1.6229,-1.6231,-1.6232,0,0,0,0,0,0,0,-1.5873,-1.5884,-1.5986,-1.5983,-1.5989,-1.6003,-1.6015,-1.6051,-1.6109,-1.6067,-1.6071,-1.6082,-1.6163,-1.6183,-1.6189,-1.6244,-1.6227,-1.623,-1.6233,-1.6234,-1.6316,-1.6316,0,0,0,0,0,0,-1.5861,-1.5879,-1.5983,-1.5989,-1.5934,-1.6006,-1.6018,-1.604,-1.6109,-1.6119,-1.6082,-1.6084,-1.6176,-1.6185,-1.6193,-1.622,-1.6231,-1.6235,-1.6237,-1.6317,-1.6316,-1.6316,0,0,0,0,0,0,-1.5857,-1.5869,-1.5979,-1.5935,-1.595,-1.6008,-1.6032,-1.6042,-1.6061,-1.612,-1.6131,-1.609,-1.6176,-1.6188,-1.6223,-1.6224,-1.6236,-1.624,-1.6317,-1.6316,-1.6316,-1.6272,0,0,0,0,0,0,-1.5853,-1.5868,-1.5875,-1.5935,-1.5953,-1.6006,-1.6032,-1.6044,-1.6068,-1.6072,-1.6131,-1.6141,-1.6177,-1.6217,-1.6227,-1.6229,-1.6243,-1.6317,-1.6317,-1.6316,-1.6273,-1.627,-1.6267,0,0,0,0,0,-1.5848,-1.5858,-1.5875,-1.5887,-1.5962,-1.6006,-1.6016,-1.6058,-1.6067,-1.6075,-1.6113,-1.6139,-1.6222,-1.622,-1.6232,-1.6235,-1.6317,-1.6317,-1.6316,-1.6275,-1.6271,-1.6267,0,0,0,0,0,0,-1.5797,-1.5867,-1.5886,-1.5916,-1.5955,-1.6016,-1.6027,-1.6052,-1.6089,-1.6091,-1.6141,-1.6154,-1.6185,-1.6214,-1.621,-1.6257,-1.6273,-1.6274,-1.6237,-1.6234,-1.6231,-1.6223,-1.6246,0,0,0,0,0,-1.5789,-1.5819,-1.5878,-1.5899,-1.5918,-1.5969,-1.5989,-1.6018,-1.606,-1.6077,-1.6117,-1.6157,-1.6193,-1.6215,-1.6251,-1.6278,-1.6292,-1.6287,-1.6284,-1.6281,-1.6282,-1.63,-1.6298,-1.6315,-1.6315,-1.6315,0,0,-1.5774,-1.5816,-1.5831,-1.589,-1.5923,-1.5953,-1.5982,-1.6012,-1.6035,-1.6081,-1.6117,-1.6148,-1.6197,-1.6228,-1.6244,-1.6253,-1.628,-1.628,-1.6278,-1.6281,-1.6299,-1.6297,-1.6296,-1.6315,-1.6315,-1.6315,0,0,-1.576,-1.5795,-1.5816,-1.5849,-1.5899,-1.5933,-1.5938,-1.5995,-1.6018,-1.6054,-1.609,-1.6118,-1.6178,-1.6211,-1.6236,-1.6236,-1.6261,-1.6246,-1.623,-1.6246,-1.6245,-1.6244,-1.6245,-1.6244,-1.6247,-1.6247,-1.6247,0,-1.5735,-1.578,-1.5824,-1.5852,-1.5878,-1.5921,-1.5943,-1.5973,-1.6032,-1.6049,-1.6059,-1.6135,-1.617,-1.6211,-1.6211,-1.6229,-1.6237,-1.6239,-1.6242,-1.6241,-1.6241,-1.6242,-1.6242,-1.6245,-1.6245,-1.6245,-1.6245,0,-1.5746,-1.5778,-1.5789,-1.5845,-1.5872,-1.5897,-1.5945,-1.5967,-1.5993,-1.6026,-1.6064,-1.6108,-1.6154,-1.6166,-1.6192,-1.621,-1.6214,-1.6232,-1.6248,-1.6236,-1.6238,-1.6239,-1.6242,-1.6242,-1.6243,-1.6244,0,0,-1.5703,-1.5783,-1.5787,-1.5813,-1.5871,-1.5897,-1.5924,-1.5969,-1.5987,-1.6027,-1.6051,-1.6101,-1.6118,-1.6146,-1.6177,-1.6191,-1.6189,-1.6208,-1.6209,-1.6203,-1.6213,-1.6199,-1.6198,-1.6207,-1.6207,-1.6207,-1.6209,0,-1.5698,-1.5749,-1.579,-1.5826,-1.5855,-1.5898,-1.5922,-1.5961,-1.5993,-1.6024,-1.6059,-1.6094,-1.6114,-1.6131,-1.6147,-1.6186,-1.6192,-1.6186,-1.6231,-1.6232,-1.6217,-1.6199,-1.6185,-1.6184,-1.621,-1.621,-1.621,0,-1.5699,-1.5737,-1.5775,-1.5832,-1.5846,-1.5867,-1.5911,-1.594,-1.5985,-1.6008,-1.6039,-1.6071,-1.6103,-1.6116,-1.6162,-1.6157,-1.6178,-1.62,-1.6201,-1.6206,-1.622,-1.6205,-1.6185,-1.6185,-1.6212,-1.6211,-1.6211,0,-1.5664,-1.5724,-1.5756,-1.5777,-1.5843,-1.5857,-1.5885,-1.5931,-1.5955,-1.5995,-1.6011,-1.6054,-1.6077,-1.611,-1.6152,-1.6158,-1.6193,-1.621,-1.6213,-1.6212,-1.6218,-1.6217,-1.6202,-1.6232,-1.6232,-1.6232,-1.6232,0,-1.5654,-1.5676,-1.5741,-1.576,-1.5786,-1.5833,-1.5858,-1.589,-1.5931,-1.5958,-1.5997,-1.6022,-1.6077,-1.6108,-1.6142,-1.6174,-1.6185,-1.6204,-1.6213,-1.6201,-1.6198,-1.6215,-1.6216,-1.6232,-1.6232,-1.6232,-1.6232,0,-1.5619,-1.5663,-1.57,-1.576,-1.5775,-1.5792,-1.5844,-1.5864,-1.5899,-1.5932,-1.5943,-1.5997,-1.6037,-1.6083,-1.6137,-1.616,-1.6189,-1.6202,-1.6174,-1.6179,-1.6179,-1.6179,-1.6174,-1.6176,-1.6204,-1.6203,-1.6203,0,-1.5609,-1.5627,-1.5689,-1.571,-1.5737,-1.5769,-1.5795,-1.5842,-1.5867,-1.5921,-1.5935,-1.5977,-1.6013,-1.6074,-1.6118,-1.616,-1.6175,-1.617,-1.6181,-1.6169,-1.6175,-1.6173,-1.6176,-1.6167,-1.6166,-1.6166,-1.6166,0,-1.5588,-1.5609,-1.5644,-1.5686,-1.5715,-1.575,-1.5788,-1.5803,-1.5858,-1.5884,-1.5924,-1.5952,-1.6008,-1.6049,-1.6097,-1.6127,-1.6156,-1.6162,-1.6165,-1.6152,-1.6135,-1.6145,-1.6165,-1.6162,-1.6162,-1.6162,-1.6162,-1.6163,-1.5566,-1.5584,-1.563,-1.5668,-1.5701,-1.5735,-1.5758,-1.5795,-1.5829,-1.5878,-1.5904,-1.5944,-1.599,-1.6057,-1.6087,-1.6119,-1.6129,-1.6133,-1.6134,-1.6135,-1.6131,-1.613,-1.6128,-1.6128,-1.6128,-1.6129,-1.6129,0,-1.5547,-1.5579,-1.5613,-1.5664,-1.5693,-1.5718,-1.5761,-1.5784,-1.5818,-1.5859,-1.5893,-1.594,-1.5981,-1.6029,-1.6073,-1.609,-1.6104,-1.61,-1.6099,-1.6106,-1.612,-1.6113,-1.6088,-1.6088,-1.6088,-1.6088,-1.6088,-1.6088,-1.5541,-1.5573,-1.5599,-1.5649,-1.5681,-1.572,-1.5742,-1.5774,-1.5807,-1.5857,-1.5891,-1.5922,-1.5967,-1.6014,-1.6053,-1.6066,-1.6081,-1.6073,-1.609,-1.6101,-1.6105,-1.6108,-1.6102,-1.6075,-1.6075,-1.6074,-1.6074,-1.6074]},{"header":{"parameterUnit":"m.s-1","parameterCategory":1,"la1":30.2991,"la2":30.254,"lo1":-89.0895,"lo2":-89.0444,"dy":0.0017,"dx":0.0017,"nx":28,"ny":28,"refTime":"2025-04-05T03:00:00:Z","depth":0,"parameterNumber":3,"parameterNumberName":"V-component_of_WINDS"},"data":[0,0,0,0,0,0,0,0,0,0,0,0,0,0,0,0,0,0,0,0,0,0,0,0,0,0,0,0,0,0,0,0,0,0,0,0,0,0,0,0,0,0,0,0,0,0,0,0,0,0,0,0,0,0,0,0,0,0,6.6211,6.6211,0,6.6293,6.6294,6.6295,6.6276,6.6274,6.6273,6.6271,6.635,6.6353,6.6357,0,0,0,0,0,0,0,0,0,0,0,0,0,6.6033,6.6036,6.621,6.6212,6.6213,6.6293,6.6294,6.6295,6.6276,6.6274,6.6272,6.6271,6.6349,6.6353,6.6357,0,0,0,0,0,0,0,0,0,0,0,0,0,6.6112,6.6038,6.621,6.6213,6.6214,6.6292,6.6294,6.6295,6.6276,6.6274,6.6272,6.627,6.6347,6.6352,6.6358,6.6437,0,0,6.6374,6.6376,0,0,0,0,0,0,0,0,6.6108,6.6119,6.6212,6.6213,6.6214,6.6272,6.626,6.6342,6.6277,6.6253,6.6271,6.6268,6.6325,6.6332,6.6353,6.644,6.6444,6.6374,6.6378,6.638,6.6381,0,0,0,0,0,0,0,6.6102,6.6115,6.6243,6.6213,6.6215,6.6209,6.6217,6.6276,6.6301,6.6254,6.6253,6.6264,6.6326,6.6348,6.6354,6.6445,6.6374,6.6379,6.6382,6.6384,6.6604,6.6606,0,0,0,0,0,0,6.6096,6.611,6.624,6.6245,6.6154,6.6214,6.6223,6.6256,6.63,6.6305,6.6266,6.6262,6.634,6.6348,6.6357,6.6454,6.638,6.6385,6.6388,6.6601,6.6604,6.6607,0,0,0,0,0,0,6.6092,6.6108,6.6237,6.6178,6.6194,6.6219,6.6255,6.6258,6.628,6.6309,6.6312,6.6284,6.6338,6.635,6.6418,6.6456,6.6387,6.6392,6.6598,6.6602,6.6606,6.6648,0,0,0,0,0,0,6.6087,6.6107,6.6138,6.6179,6.6197,6.6298,6.6258,6.6262,6.629,6.6287,6.6327,6.6331,6.6337,6.641,6.6423,6.6462,6.6396,6.6594,6.66,6.6604,6.6643,6.6653,6.6661,0,0,0,0,0,6.6081,6.6145,6.614,6.6155,6.6237,6.63,6.631,6.6318,6.6293,6.6325,6.6343,6.633,6.645,6.6417,6.6432,6.6473,6.6592,6.6598,6.6604,6.6639,6.6651,6.6661,0,0,0,0,0,0,6.6105,6.615,6.6145,6.6224,6.6259,6.6297,6.6336,6.633,6.6371,6.6366,6.6372,6.6381,6.6451,6.6469,6.6431,6.6553,6.6517,6.6526,6.6539,6.655,6.6559,6.6553,6.64,0,0,0,0,0,6.612,6.6169,6.6205,6.6271,6.6289,6.631,6.6338,6.6341,6.6376,6.639,6.6413,6.6447,6.6493,6.6522,6.6566,6.6645,6.6654,6.6681,6.669,6.6697,6.6705,6.675,6.6763,6.6627,6.6626,6.6626,0,0,6.615,6.6181,6.6211,6.6277,6.6304,6.6354,6.6322,6.6376,6.6413,6.6398,6.6465,6.6483,6.6521,6.6596,6.663,6.6613,6.6745,6.6705,6.671,6.6714,6.6757,6.677,6.6782,6.6631,6.663,6.6629,0,0,6.6232,6.626,6.6319,6.6348,6.6391,6.6404,6.6419,6.6459,6.6471,6.6539,6.6529,6.6572,6.665,6.6679,6.6703,6.6798,6.6787,6.6811,6.6858,6.6902,6.6912,6.6922,6.6957,6.6969,6.6819,6.6819,6.6819,0,6.6264,6.634,6.6349,6.6406,6.6435,6.6426,6.6486,6.6513,6.6567,6.6587,6.6567,6.6667,6.6691,6.6774,6.6797,6.6817,6.6833,6.6807,6.691,6.692,6.6929,6.6962,6.6975,6.6822,6.6821,6.6821,6.6821,0,6.6378,6.6431,6.6473,6.6529,6.6563,6.662,6.6638,6.6671,6.6671,6.6687,6.6756,6.6786,6.6836,6.6856,6.6856,6.6939,6.6927,6.6909,6.6873,6.6945,6.6976,6.6989,6.6826,6.6825,6.6824,6.6823,0,0,6.6475,6.6537,6.6553,6.6579,6.6627,6.6667,6.6724,6.6776,6.6804,6.6842,6.689,6.6957,6.6942,6.697,6.6973,6.7011,6.7086,6.6989,6.699,6.7006,6.718,6.7194,6.7209,6.7079,6.7082,6.7084,6.7177,0,6.6562,6.6665,6.6676,6.6767,6.6817,6.681,6.686,6.6894,6.6911,6.6954,6.6971,6.702,6.6995,6.7012,6.705,6.7069,6.7121,6.7062,6.7123,6.7126,6.7115,6.7225,6.7239,6.7326,6.7189,6.7192,6.7193,0,6.6676,6.672,6.6818,6.6861,6.6882,6.6927,6.6976,6.7018,6.7056,6.7065,6.7098,6.7097,6.7155,6.7117,6.7198,6.7157,6.7183,6.7196,6.72,6.7206,6.7164,6.7234,6.7353,6.7367,6.7212,6.7211,6.7209,0,6.6739,6.6822,6.6892,6.6914,6.6966,6.6998,6.702,6.7057,6.7088,6.713,6.715,6.7197,6.7223,6.726,6.7271,6.7243,6.7352,6.7315,6.7361,6.736,6.7384,6.7382,6.7509,6.7399,6.7399,6.7399,6.7399,0,6.6834,6.6894,6.6922,6.6964,6.7031,6.7043,6.7109,6.7129,6.7162,6.7209,6.7205,6.7248,6.726,6.7305,6.7314,6.738,6.7391,6.74,6.7402,6.7401,6.74,6.7418,6.7412,6.7402,6.7402,6.7401,6.74,0,6.6916,6.6936,6.7012,6.7056,6.7068,6.7116,6.7152,6.7193,6.721,6.7268,6.7283,6.7308,6.7361,6.7376,6.7439,6.7445,6.7523,6.7518,6.751,6.7511,6.7556,6.7552,6.77,6.772,6.7596,6.7597,6.7598,0,6.6976,6.7022,6.7072,6.7104,6.7129,6.7179,6.7212,6.7225,6.7259,6.7308,6.7343,6.7396,6.7439,6.7524,6.7547,6.7596,6.7593,6.7641,6.76,6.7598,6.7595,6.7592,6.7597,6.7649,6.765,6.7651,6.7652,0,6.708,6.7089,6.7137,6.719,6.7229,6.727,6.731,6.7335,6.7354,6.7392,6.7448,6.7482,6.7548,6.76,6.765,6.7671,6.7665,6.7665,6.7679,6.7678,6.7673,6.7678,6.7533,6.7662,6.7661,6.766,6.766,6.7659,6.7154,6.7195,6.7238,6.7292,6.7324,6.7361,6.7403,6.7426,6.7473,6.753,6.7534,6.7595,6.7633,6.7699,6.7724,6.7771,6.7756,6.7775,6.778,6.7785,6.7789,6.7665,6.7779,6.7779,6.7779,6.7779,6.7778,0,6.7259,6.7287,6.7337,6.7394,6.7436,6.7429,6.7473,6.7509,6.7563,6.76,6.7644,6.7708,6.776,6.7788,6.7839,6.7871,6.787,6.7884,6.7882,6.7888,6.7799,6.7783,6.7885,6.7885,6.7885,6.7885,6.7885,6.7885,6.7319,6.739,6.7404,6.7491,6.7518,6.7579,6.7605,6.7639,6.767,6.7743,6.7787,6.7806,6.7839,6.7894,6.7941,6.7947,6.7967,6.7983,6.7988,6.7905,6.7894,6.7883,6.7868,6.7987,6.7987,6.8074,6.8075,6.8075]}]]